Weather Roundup
Issued by NWS Chicago, IL

Home | Current Version | Previous Version | Text Only | Print | Product List | Glossary Off
Versions: 1 2 3 4 5 6 7 8 9 10 11 12 13 14 15 16 17 18 19 20 21 22 23 24 25 26 27 28 29 30 31 32 33 34 35 36 37 38 39 40 41 42 43 44 45 46 47 48 49 50

000
NZUS59 KLOT 192210
HRRLOT

CHICAGO AREA WEATHER ROUNDUP
NATIONAL WEATHER SERVICE CHICAGO/ROMEOVILLE IL
500 PM CDT SUN OCT 19 2014

NOTE: "FAIR" INDICATES FEW OR NO CLOUDS BELOW 12,000 FEET WITH NO
SIGNIFICANT WEATHER AND/OR OBSTRUCTIONS TO VISIBILITY.

* THESE STATIONS ARE NOT UNDER NWS QUALITY CONTROL. THEY ALSO MAY NOT
  REPORT WEATHER SUCH AS PRECIPITATION OR FOG.

ILZ005-006-012>014-019>023-192300-
NORTHEAST ILLINOIS

CITY           SKY/WX    TMP DP  RH WIND       PRES   REMARKS
OHARE          CLOUDY    52  40  63 S13       30.01F
MIDWAY         CLOUDY    55  42  61 SW16G23   30.03F
AURORA         CLOUDY    56  41  57 S8        30.01F
LANSING*       CLOUDY    54  42  64 SW13G21   30.04F
JOLIET*        CLOUDY    54  42  64 S9        30.03F
WAUKEGAN       PTSUNNY   52  40  63 S17       29.98F
DUPAGE AIRPORT CLOUDY    55  42  61 S9        30.00F
WHEELING       PTSUNNY   54  40  59 SW14      30.02F
KANKAKEE*      MOSUNNY   54  43  66 S10G18    30.06F
MORRIS*        CLOUDY    56  45  64 S6        30.02F
LEWIS AIRPORT* CLOUDY    54  41  61 SW10      30.02F
NORTHERLY IS     N/A     53  40  61 SW10        N/A
$$

WIZ051-052-058>065-066-070>072-192300-
SOUTHEAST WISCONSIN

CITY           SKY/WX    TMP DP  RH WIND       PRES   REMARKS
MILWAUKEE      CLOUDY    55  40  56 S18G26    29.94F
KENOSHA*       PTSUNNY   54  41  61 SW15G24   29.97F
RACINE*        CLOUDY    55  40  56 SW16G24   29.97F
BURLINGTON     PTSUNNY   53  40  61 S13G20    29.95F
WAUKESHA       MOSUNNY   54  39  58 S12G23    29.94F
WEST BEND      CLOUDY    54  37  54 S13       29.91F
$$

INZ001>003-010>013-019-020-192300-
NORTHWEST INDIANA

CITY           SKY/WX    TMP DP  RH WIND       PRES   REMARKS
GARY*          CLOUDY    57  41  54 SW9       30.05F
MICHIGAN CITY* NOT AVBL
RENSSELAER*    NOT AVBL
VALPARAISO     CLOUDY    55  38  52 SW10      30.05F
$$

LMZ740>746-192300-
SOUTHERN LAKE MICHIGAN

STATION/POSITION TIME  SKY/WX   TEMP WIND        PRES    VSBY
                                AIR  DIR/SP/G
                 (UTC)          (F)  (DEG/KT/KT) (MB)    (MI)
HARRISON CRIB    2200            53  190/ 21/ 25   N/A
BURNHAM HARBOR   2200            53  230/ 12/ 14   N/A
CALUMET HARBOR   2200            54  190/ 11/ 15 1015.7F
BURNS HARBOR     NOT AVBL
MICHIGAN CITY    2200            54  180/  9/ 11   N/A
$$

ABBREVIATIONS USED IN REMARKS
   TC - TEMPERATURE IN CELSIUS
  WCI - WIND CHILL INDEX
   HX - HEAT INDEX
  VSB - VISIBILITY
$$



USA.gov is the U.S. government's official web portal to all federal, state and local government web resources and services.